Short Creek, WV

3:11 AM EST on January 17, 2017 (GMT -0500)
Wheeling-Ohio County

Weather History for KHLG - January, 2013

Change the Weather History Date:

Sunday, January 6, 2013

  Actual Average Record
Temperature  
Mean Temperature 35 °F 29 °F  
Max Temperature 37 °F 36 °F 61 °F (2007)
Min Temperature 32 °F 22 °F -9 °F (2014)
Degree Days  
Heating Degree Days 30 36  
Month to date heating degree days 224 216  
Since 1 July heating degree days 2250 2341  
Cooling Degree Days 0    
Month to date cooling degree days 0  
Year to date cooling degree days 0  
Moisture  
Dew Point 27 °F    
Average Humidity 74    
Maximum Humidity 89    
Minimum Humidity 59    
Precipitation  
Precipitation T in 0.11 in 0.74 in (2005)
Month to date precipitation 0.03 0.64  
Sea Level Pressure  
Sea Level Pressure 30.10 in    
Wind  
Wind Speed 10 mph (WSW)    
Max Wind Speed 18 mph    
Max Gust Speed 23 mph    
Visibility 9 miles    
Events Snow    
T = Trace of Precipitation, MM = Missing Value Source: NWS Daily Summary

Daily Weather History Graph

Daily Weather History Graph

Search for Another Location

Airport or City:

Trip Planner

Search our weather history database for the weather conditions in past years. The results will help you decide how hot, cold, wet, or windy it might be!

Date:

Astronomy

Jan. 06, 2013 Rise Set
Actual Time 7:45 AM EST 5:12 PM EST
Civil Twilight 7:14 AM EST 5:42 PM EST
Nautical Twilight 6:40 AM EST 6:16 PM EST
Astronomical Twilight 6:08 AM EST 6:49 PM EST
Moon 1:57 AM EST (1/6) 12:38 PM EST (1/6)
Length of Visible Light 10h 27m
Length of Day
9h 27m
Waning Crescent, 33% of the Moon is Illuminated
Jan 6
Waning Crescent
Jan 11
New
Jan 18
First Quarter
Jan 26
Full
Feb 3
Last Quarter

Hourly Weather History & Observations

Time (EST) Temp. Windchill Dew Point Humidity Pressure Visibility Wind Dir Wind Speed Gust Speed Precip Events Conditions
12:53 AM 35.1 °F 27.9 °F 23.0 °F 61% 30.15 in 10.0 mi SW 9.2 mph - N/A   Overcast
1:53 AM 34.0 °F 28.0 °F 23.0 °F 64% 30.15 in 10.0 mi SW 6.9 mph - N/A   Overcast
2:53 AM 34.0 °F 27.2 °F 23.0 °F 64% 30.14 in 10.0 mi SW 8.1 mph - N/A   Overcast
3:53 AM 34.0 °F 27.2 °F 23.0 °F 64% 30.12 in 10.0 mi SW 8.1 mph - N/A   Overcast
4:53 AM 33.1 °F 26.1 °F 23.0 °F 66% 30.10 in 10.0 mi SSW 8.1 mph - N/A   Overcast
5:53 AM 33.1 °F 26.9 °F 24.1 °F 70% 30.09 in 10.0 mi SSW 6.9 mph - N/A   Overcast
6:53 AM 34.0 °F 27.2 °F 24.1 °F 67% 30.10 in 10.0 mi SW 8.1 mph - N/A   Overcast
7:53 AM 34.0 °F 27.2 °F 24.1 °F 67% 30.09 in 10.0 mi SW 8.1 mph - N/A   Overcast
8:53 AM 35.1 °F 28.6 °F 25.0 °F 67% 30.09 in 10.0 mi SSW 8.1 mph - N/A   Overcast
9:53 AM 36.0 °F 28.5 °F 25.0 °F 64% 30.09 in 10.0 mi SW 10.4 mph 18.4 mph N/A   Overcast
10:53 AM 36.0 °F 27.5 °F 26.1 °F 67% 30.09 in 10.0 mi WSW 12.7 mph - N/A   Overcast
11:53 AM 37.0 °F 27.7 °F 26.1 °F 65% 30.05 in 10.0 mi SW 16.1 mph 21.9 mph N/A   Overcast
12:53 PM 37.0 °F 30.4 °F 26.1 °F 65% 30.02 in 10.0 mi SW 9.2 mph - N/A   Overcast
1:53 PM 37.0 °F 29.8 °F 27.0 °F 67% 30.01 in 10.0 mi SW 10.4 mph - N/A   Overcast
2:53 PM 37.0 °F 29.8 °F 27.0 °F 67% 30.02 in 10.0 mi SW 10.4 mph - N/A   Overcast
3:53 PM 37.0 °F 29.8 °F 27.0 °F 67% 30.04 in 10.0 mi WSW 10.4 mph 18.4 mph N/A   Overcast
4:48 PM 37.4 °F 31.4 °F 28.4 °F 70% 30.02 in 8.0 mi WSW 8.1 mph - 0.00 in Snow Light Snow
4:53 PM 36.0 °F 28.5 °F 28.0 °F 73% 30.06 in 8.0 mi WSW 10.4 mph - 0.00 in Snow Light Snow
5:03 PM 35.6 °F 28.6 °F 28.4 °F 75% 30.03 in 8.0 mi WSW 9.2 mph - 0.00 in Snow Light Snow
5:23 PM 35.6 °F 28.6 °F 28.4 °F 75% 30.04 in 8.0 mi WSW 9.2 mph - 0.00 in Snow Light Snow
5:53 PM 35.1 °F 27.4 °F 30.0 °F 82% 30.09 in 7.0 mi West 10.4 mph - 0.00 in Snow Light Snow
6:14 PM 33.8 °F 25.8 °F 30.2 °F 87% 30.06 in 8.0 mi West 10.4 mph - 0.00 in Snow Light Snow
6:53 PM 34.0 °F 26.0 °F 30.9 °F 89% 30.12 in 10.0 mi WSW 10.4 mph - 0.00 in   Overcast
7:32 PM 33.8 °F 26.4 °F 30.2 °F 87% 30.09 in 9.0 mi WSW 9.2 mph - N/A   Overcast
7:43 PM 33.8 °F 26.4 °F 30.2 °F 87% 30.09 in 9.0 mi WSW 9.2 mph - N/A   Overcast
7:53 PM 34.0 °F 27.2 °F 30.9 °F 89% 30.14 in 9.0 mi West 8.1 mph - N/A   Overcast
8:39 PM 33.8 °F 27.0 °F 30.2 °F 87% 30.11 in 9.0 mi West 8.1 mph - N/A   Overcast
8:53 PM 34.0 °F 26.0 °F 30.9 °F 89% 30.16 in 9.0 mi West 10.4 mph - N/A   Overcast
9:53 PM 34.0 °F 27.2 °F 30.0 °F 85% 30.18 in 8.0 mi West 8.1 mph - 0.00 in   Overcast
10:05 PM 33.8 °F 25.8 °F 30.2 °F 87% 30.15 in 9.0 mi WNW 10.4 mph - N/A   Overcast
10:43 PM 33.8 °F 24.8 °F 26.6 °F 75% 30.18 in 10.0 mi WNW 12.7 mph 21.9 mph N/A   Overcast
10:53 PM 33.1 °F 23.4 °F 27.0 °F 78% 30.22 in 10.0 mi West 13.8 mph 20.7 mph N/A   Overcast
11:53 PM 32.0 °F 25.6 °F 26.1 °F 79% 30.26 in 8.0 mi West 6.9 mph - N/A   Overcast